Hebei Shijiazhuang — VRIS2 — position and weather

sailwx.info

Track history (hours):
 
Tides and Currents Weather Stations Pressure Air Temp Water Temp Dewpoint Dewpoint Depression Visibility Wind Speed Wind Dir Waves Ship Positions

Hebei Shijiazhuang

Last reported at 2014-Nov-22 09:06 UTC. Time now 2014-Nov-22 15:41 UTC.
Position N 21°58' E 113°57'.

Length 235 m; draft 10.7 m.

Type: Cargo ship. MMSI: 477899600.

Date/timePositionNaut miles runAvg speedWind from/ knotsBaromVisibWave heightAir tempDewpointWater temp
2014-Nov-22 09:06N 21°58' E 113°57'811.8
2014-Nov-22 08:23N 21°56' E 113°49'1011.9
2014-Nov-22 07:31N 21°53' E 113°38'1211.9
2014-Nov-22 06:33N 21°50' E 113°26'1111.0
2014-Nov-22 05:33N 21°50' E 113°14'7 7.3
2014-Nov-22 04:33N 21°57' E 113°12'0 0.1
2014-Nov-22 03:27N 21°57' E 113°12'0 0.0
2014-Nov-22 02:33N 21°57' E 113°12'0 0.0
2014-Nov-22 01:27N 21°57' E 113°12'0 0.0
2014-Nov-22 00:27N 21°57' E 113°12'0 0.0
2014-Nov-21 23:33N 21°57' E 113°12'0 0.0
2014-Nov-21 22:33N 21°57' E 113°12'0 0.1
2014-Nov-21 21:33N 21°57' E 113°12'0 0.0
2014-Nov-21 20:33N 21°57' E 113°12'0 0.1
2014-Nov-21 19:33N 21°57' E 113°12'0 0.0
2014-Nov-21 18:33N 21°57' E 113°12'0 0.0
2014-Nov-21 17:33N 21°57' E 113°12'0 0.0
2014-Nov-21 16:33N 21°57' E 113°12'0 0.0
2014-Nov-21 15:09N 21°57' E 113°12'0 0.0
2014-Nov-21 14:33N 21°57' E 113°12'0 0.0
2014-Nov-21 13:29N 21°57' E 113°12'0 0.0
2014-Nov-21 12:33N 21°57' E 113°12'0 0.0
2014-Nov-21 11:33N 21°57' E 113°12'0 0.0
2014-Nov-21 10:33N 21°57' E 113°12'0 0.0
2014-Nov-21 09:33N 21°57' E 113°12'0 0.0
2014-Nov-21 08:33N 21°57' E 113°12'0 0.0
2014-Nov-21 07:33N 21°57' E 113°12'0 0.0
2014-Nov-21 06:33N 21°57' E 113°12'0 0.0
2014-Nov-21 05:27N 21°57' E 113°12'0 0.0
2014-Nov-21 04:33N 21°57' E 113°12'0 0.0
2014-Nov-21 03:27N 21°57' E 113°12'0 0.0
2014-Nov-21 02:33N 21°57' E 113°12'0 0.0
2014-Nov-21 01:33N 21°57' E 113°12'0 0.0
2014-Nov-21 00:33N 21°57' E 113°12'0 0.0
2014-Nov-20 23:33N 21°57' E 113°12'0 0.0
2014-Nov-20 22:33N 21°57' E 113°12'0 0.0
2014-Nov-20 21:33N 21°57' E 113°12'0 0.1
2014-Nov-20 20:27N 21°57' E 113°12'0 0.1
2014-Nov-20 19:27N 21°57' E 113°12'0 0.0
2014-Nov-20 18:09N 21°57' E 113°12'0 0.0
2014-Nov-20 17:27N 21°57' E 113°12'0 0.0
2014-Nov-20 16:33N 21°57' E 113°12'0 0.0
2014-Nov-20 15:27N 21°57' E 113°12'0 0.0
2014-Nov-20 14:27N 21°57' E 113°12'0 0.0
2014-Nov-20 13:33N 21°57' E 113°12'0 0.0
2014-Nov-20 12:27N 21°57' E 113°12'0 0.1
2014-Nov-20 11:33N 21°57' E 113°12'5 4.7
2014-Nov-20 10:33N 21°52' E 113°13'6 6.2
2014-Nov-20 09:33N 21°48' E 113°18'1 0.9
2014-Nov-20 08:22N 21°49' E 113°19'0 0.0
2014-Nov-20 07:28N 21°49' E 113°19'0 0.0
2014-Nov-20 06:16N 21°49' E 113°19'0 0.0
2014-Nov-20 05:28N 21°49' E 113°19'0 0.0
2014-Nov-20 04:28N 21°49' E 113°19'0 0.0
2014-Nov-20 03:28N 21°49' E 113°19'0 0.0
2014-Nov-20 02:16N 21°49' E 113°19'0 0.0
2014-Nov-20 01:28N 21°49' E 113°19'0 0.0
2014-Nov-20 00:28N 21°49' E 113°19'0 0.0
2014-Nov-19 23:28N 21°49' E 113°19'0 0.1
2014-Nov-19 22:28N 21°49' E 113°19'0 0.1
2014-Nov-19 21:28N 21°49' E 113°19'0 0.1
2014-Nov-19 20:28N 21°49' E 113°19'0 0.0
2014-Nov-19 19:28N 21°49' E 113°19'0 0.0
2014-Nov-19 18:28N 21°49' E 113°19'0 0.1
2014-Nov-19 17:28N 21°49' E 113°19'0 0.1
2014-Nov-19 16:28N 21°49' E 113°19'0 0.0
2014-Nov-19 15:16N 21°49' E 113°19'0 0.0
2014-Nov-19 14:28N 21°49' E 113°19'0 0.0
2014-Nov-19 13:22N 21°49' E 113°19'0 0.0
2014-Nov-19 12:28N 21°49' E 113°19'0 0.0
2014-Nov-19 11:22N 21°49' E 113°19'0 0.0
2014-Nov-19 10:16N 21°49' E 113°19'0 0.0
2014-Nov-19 09:28N 21°49' E 113°19'0 0.0
2014-Nov-19 08:28N 21°49' E 113°19'0 0.0
2014-Nov-19 07:22N 21°49' E 113°19'0 0.0
2014-Nov-19 06:10N 21°49' E 113°19'0 0.0
2014-Nov-19 05:16N 21°49' E 113°19'0 0.0
2014-Nov-19 04:16N 21°49' E 113°19'0 0.0
2014-Nov-19 03:28N 21°49' E 113°19'0 0.0
2014-Nov-19 02:28N 21°49' E 113°19'0 0.0
2014-Nov-19 01:28N 21°49' E 113°19'0 0.0
2014-Nov-19 00:10N 21°49' E 113°19'0 0.1
2014-Nov-18 23:22N 21°49' E 113°19'0 0.1
2014-Nov-18 22:28N 21°49' E 113°19'0 0.0
2014-Nov-18 21:28N 21°49' E 113°19'0 0.0
2014-Nov-18 20:22N 21°49' E 113°19'0 0.1
2014-Nov-18 19:28N 21°49' E 113°19'0 0.1
2014-Nov-18 18:22N 21°49' E 113°19'0 0.0
2014-Nov-18 17:22N 21°49' E 113°19'0 0.0
2014-Nov-18 16:16N 21°49' E 113°19'0 0.0
2014-Nov-18 15:16N 21°49' E 113°19'0 0.0
2014-Nov-18 14:22N 21°49' E 113°19'0 0.0
2014-Nov-18 13:28N 21°49' E 113°19'0 0.0
2014-Nov-18 12:16N 21°49' E 113°19'0 0.0
2014-Nov-18 11:28N 21°49' E 113°19'0 0.0
2014-Nov-18 10:10N 21°49' E 113°19'0 0.0
2014-Nov-18 09:28N 21°49' E 113°19'0 0.0
2014-Nov-18 08:22N 21°49' E 113°19'0 0.0
2014-Nov-18 07:28N 21°49' E 113°19'0 0.0
2014-Nov-18 06:28N 21°49' E 113°19'0 0.0
2014-Nov-18 05:04N 21°49' E 113°19'0 0.0
2014-Nov-18 04:22N 21°49' E 113°19'0 0.1
2014-Nov-18 03:28N 21°49' E 113°19'0 0.0
2014-Nov-18 02:28N 21°49' E 113°19'0 0.0
2014-Nov-18 01:28N 21°49' E 113°19'0 0.0
2014-Nov-18 00:28N 21°49' E 113°19'0 0.0
2014-Nov-17 23:16N 21°49' E 113°19'0 0.0
2014-Nov-17 22:22N 21°49' E 113°19'0 0.0
2014-Nov-17 21:22N 21°49' E 113°19'0 0.0
2014-Nov-17 20:28N 21°49' E 113°19'0 0.1
2014-Nov-17 19:22N 21°49' E 113°19'0 0.1
2014-Nov-17 18:28N 21°49' E 113°19'0 0.0
2014-Nov-17 17:22N 21°49' E 113°19'0 0.0
2014-Nov-17 16:22N 21°49' E 113°19'0 0.0
2014-Nov-17 15:16N 21°49' E 113°19'0 0.0
2014-Nov-17 14:28N 21°49' E 113°19'0 0.0
2014-Nov-17 13:28N 21°49' E 113°19'0 0.1
2014-Nov-17 12:28N 21°49' E 113°19'0 0.0
2014-Nov-17 11:22N 21°49' E 113°19'0 0.1
2014-Nov-17 10:16N 21°49' E 113°19'0 0.1
2014-Nov-17 09:28N 21°49' E 113°19'0 0.0
2014-Nov-17 08:28N 21°49' E 113°19'0 0.0
2014-Nov-17 07:10N 21°49' E 113°19'0 0.0
2014-Nov-17 06:16N 21°49' E 113°19'0 0.0
2014-Nov-17 05:28N 21°49' E 113°19'0 0.1
2014-Nov-17 04:22N 21°49' E 113°19'0 0.0
2014-Nov-17 03:28N 21°49' E 113°19'0 0.0
2014-Nov-17 02:10N 21°49' E 113°19'0 0.0
2014-Nov-17 01:28N 21°49' E 113°19'0 0.0
2014-Nov-17 00:28N 21°49' E 113°19'0 0.0
2014-Nov-16 23:10N 21°49' E 113°19'0 0.0
2014-Nov-16 22:04N 21°49' E 113°19'0 0.0
2014-Nov-16 21:28N 21°49' E 113°19'0 0.0
2014-Nov-16 20:28N 21°49' E 113°19'0 0.0
2014-Nov-16 19:28N 21°49' E 113°19'0 0.0
2014-Nov-16 18:16N 21°49' E 113°19'0 0.0
2014-Nov-16 17:28N 21°49' E 113°19'0 0.0
2014-Nov-16 11:10N 21°49' E 113°19'0 0.2
2014-Nov-16 10:12N 21°49' E 113°19'3 4.6
2014-Nov-16 09:33N 21°46' E 113°21'  
Track history (hours):
 
Tides and Currents Weather Stations Pressure Air Temp Water Temp Dewpoint Dewpoint Depression Visibility Wind Speed Wind Dir Waves Ship Positions

Hebei Shijiazhuang

Last reported at 2014-Nov-22 09:06 UTC. Time now 2014-Nov-22 15:41 UTC.
Position N 21°58' E 113°57'.

Length 235 m; draft 10.7 m.

Type: Cargo ship. MMSI: 477899600.

Date/timePositionNaut miles runAvg speedWind from/ knotsBaromVisibWave heightAir tempDewpointWater temp
2014-Nov-22 09:06N 21°58' E 113°57'811.8
2014-Nov-22 08:23N 21°56' E 113°49'1011.9
2014-Nov-22 07:31N 21°53' E 113°38'1211.9
2014-Nov-22 06:33N 21°50' E 113°26'1111.0
2014-Nov-22 05:33N 21°50' E 113°14'7 7.3
2014-Nov-22 04:33N 21°57' E 113°12'0 0.1
2014-Nov-22 03:27N 21°57' E 113°12'0 0.0
2014-Nov-22 02:33N 21°57' E 113°12'0 0.0
2014-Nov-22 01:27N 21°57' E 113°12'0 0.0
2014-Nov-22 00:27N 21°57' E 113°12'0 0.0
2014-Nov-21 23:33N 21°57' E 113°12'0 0.0
2014-Nov-21 22:33N 21°57' E 113°12'0 0.1
2014-Nov-21 21:33N 21°57' E 113°12'0 0.0
2014-Nov-21 20:33N 21°57' E 113°12'0 0.1
2014-Nov-21 19:33N 21°57' E 113°12'0 0.0
2014-Nov-21 18:33N 21°57' E 113°12'0 0.0
2014-Nov-21 17:33N 21°57' E 113°12'0 0.0
2014-Nov-21 16:33N 21°57' E 113°12'0 0.0
2014-Nov-21 15:09N 21°57' E 113°12'0 0.0
2014-Nov-21 14:33N 21°57' E 113°12'0 0.0
2014-Nov-21 13:29N 21°57' E 113°12'0 0.0
2014-Nov-21 12:33N 21°57' E 113°12'0 0.0
2014-Nov-21 11:33N 21°57' E 113°12'0 0.0
2014-Nov-21 10:33N 21°57' E 113°12'0 0.0
2014-Nov-21 09:33N 21°57' E 113°12'0 0.0
2014-Nov-21 08:33N 21°57' E 113°12'0 0.0
2014-Nov-21 07:33N 21°57' E 113°12'0 0.0
2014-Nov-21 06:33N 21°57' E 113°12'0 0.0
2014-Nov-21 05:27N 21°57' E 113°12'0 0.0
2014-Nov-21 04:33N 21°57' E 113°12'0 0.0
2014-Nov-21 03:27N 21°57' E 113°12'0 0.0
2014-Nov-21 02:33N 21°57' E 113°12'0 0.0
2014-Nov-21 01:33N 21°57' E 113°12'0 0.0
2014-Nov-21 00:33N 21°57' E 113°12'0 0.0
2014-Nov-20 23:33N 21°57' E 113°12'0 0.0
2014-Nov-20 22:33N 21°57' E 113°12'0 0.0
2014-Nov-20 21:33N 21°57' E 113°12'0 0.1
2014-Nov-20 20:27N 21°57' E 113°12'0 0.1
2014-Nov-20 19:27N 21°57' E 113°12'0 0.0
2014-Nov-20 18:09N 21°57' E 113°12'0 0.0
2014-Nov-20 17:27N 21°57' E 113°12'0 0.0
2014-Nov-20 16:33N 21°57' E 113°12'0 0.0
2014-Nov-20 15:27N 21°57' E 113°12'0 0.0
2014-Nov-20 14:27N 21°57' E 113°12'0 0.0
2014-Nov-20 13:33N 21°57' E 113°12'0 0.0
2014-Nov-20 12:27N 21°57' E 113°12'0 0.1
2014-Nov-20 11:33N 21°57' E 113°12'5 4.7
2014-Nov-20 10:33N 21°52' E 113°13'6 6.2
2014-Nov-20 09:33N 21°48' E 113°18'1 0.9
2014-Nov-20 08:22N 21°49' E 113°19'0 0.0
2014-Nov-20 07:28N 21°49' E 113°19'0 0.0
2014-Nov-20 06:16N 21°49' E 113°19'0 0.0
2014-Nov-20 05:28N 21°49' E 113°19'0 0.0
2014-Nov-20 04:28N 21°49' E 113°19'0 0.0
2014-Nov-20 03:28N 21°49' E 113°19'0 0.0
2014-Nov-20 02:16N 21°49' E 113°19'0 0.0
2014-Nov-20 01:28N 21°49' E 113°19'0 0.0
2014-Nov-20 00:28N 21°49' E 113°19'0 0.0
2014-Nov-19 23:28N 21°49' E 113°19'0 0.1
2014-Nov-19 22:28N 21°49' E 113°19'0 0.1
2014-Nov-19 21:28N 21°49' E 113°19'0 0.1
2014-Nov-19 20:28N 21°49' E 113°19'0 0.0
2014-Nov-19 19:28N 21°49' E 113°19'0 0.0
2014-Nov-19 18:28N 21°49' E 113°19'0 0.1
2014-Nov-19 17:28N 21°49' E 113°19'0 0.1
2014-Nov-19 16:28N 21°49' E 113°19'0 0.0
2014-Nov-19 15:16N 21°49' E 113°19'0 0.0
2014-Nov-19 14:28N 21°49' E 113°19'0 0.0
2014-Nov-19 13:22N 21°49' E 113°19'0 0.0
2014-Nov-19 12:28N 21°49' E 113°19'0 0.0
2014-Nov-19 11:22N 21°49' E 113°19'0 0.0
2014-Nov-19 10:16N 21°49' E 113°19'0 0.0
2014-Nov-19 09:28N 21°49' E 113°19'0 0.0
2014-Nov-19 08:28N 21°49' E 113°19'0 0.0
2014-Nov-19 07:22N 21°49' E 113°19'0 0.0
2014-Nov-19 06:10N 21°49' E 113°19'0 0.0
2014-Nov-19 05:16N 21°49' E 113°19'0 0.0
2014-Nov-19 04:16N 21°49' E 113°19'0 0.0
2014-Nov-19 03:28N 21°49' E 113°19'0 0.0
2014-Nov-19 02:28N 21°49' E 113°19'0 0.0
2014-Nov-19 01:28N 21°49' E 113°19'0 0.0
2014-Nov-19 00:10N 21°49' E 113°19'0 0.1
2014-Nov-18 23:22N 21°49' E 113°19'0 0.1
2014-Nov-18 22:28N 21°49' E 113°19'0 0.0
2014-Nov-18 21:28N 21°49' E 113°19'0 0.0
2014-Nov-18 20:22N 21°49' E 113°19'0 0.1
2014-Nov-18 19:28N 21°49' E 113°19'0 0.1
2014-Nov-18 18:22N 21°49' E 113°19'0 0.0
2014-Nov-18 17:22N 21°49' E 113°19'0 0.0
2014-Nov-18 16:16N 21°49' E 113°19'0 0.0
2014-Nov-18 15:16N 21°49' E 113°19'0 0.0
2014-Nov-18 14:22N 21°49' E 113°19'0 0.0
2014-Nov-18 13:28N 21°49' E 113°19'0 0.0
2014-Nov-18 12:16N 21°49' E 113°19'0 0.0
2014-Nov-18 11:28N 21°49' E 113°19'0 0.0
2014-Nov-18 10:10N 21°49' E 113°19'0 0.0
2014-Nov-18 09:28N 21°49' E 113°19'0 0.0
2014-Nov-18 08:22N 21°49' E 113°19'0 0.0
2014-Nov-18 07:28N 21°49' E 113°19'0 0.0
2014-Nov-18 06:28N 21°49' E 113°19'0 0.0
2014-Nov-18 05:04N 21°49' E 113°19'0 0.0
2014-Nov-18 04:22N 21°49' E 113°19'0 0.1
2014-Nov-18 03:28N 21°49' E 113°19'0 0.0
2014-Nov-18 02:28N 21°49' E 113°19'0 0.0
2014-Nov-18 01:28N 21°49' E 113°19'0 0.0
2014-Nov-18 00:28N 21°49' E 113°19'0 0.0
2014-Nov-17 23:16N 21°49' E 113°19'0 0.0
2014-Nov-17 22:22N 21°49' E 113°19'0 0.0
2014-Nov-17 21:22N 21°49' E 113°19'0 0.0
2014-Nov-17 20:28N 21°49' E 113°19'0 0.1
2014-Nov-17 19:22N 21°49' E 113°19'0 0.1
2014-Nov-17 18:28N 21°49' E 113°19'0 0.0
2014-Nov-17 17:22N 21°49' E 113°19'0 0.0
2014-Nov-17 16:22N 21°49' E 113°19'0 0.0
2014-Nov-17 15:16N 21°49' E 113°19'0 0.0
2014-Nov-17 14:28N 21°49' E 113°19'0 0.0
2014-Nov-17 13:28N 21°49' E 113°19'0 0.1
2014-Nov-17 12:28N 21°49' E 113°19'0 0.0
2014-Nov-17 11:22N 21°49' E 113°19'0 0.1
2014-Nov-17 10:16N 21°49' E 113°19'0 0.1
2014-Nov-17 09:28N 21°49' E 113°19'0 0.0
2014-Nov-17 08:28N 21°49' E 113°19'0 0.0
2014-Nov-17 07:10N 21°49' E 113°19'0 0.0
2014-Nov-17 06:16N 21°49' E 113°19'0 0.0
2014-Nov-17 05:28N 21°49' E 113°19'0 0.1
2014-Nov-17 04:22N 21°49' E 113°19'0 0.0
2014-Nov-17 03:28N 21°49' E 113°19'0 0.0
2014-Nov-17 02:10N 21°49' E 113°19'0 0.0
2014-Nov-17 01:28N 21°49' E 113°19'0 0.0
2014-Nov-17 00:28N 21°49' E 113°19'0 0.0
2014-Nov-16 23:10N 21°49' E 113°19'0 0.0
2014-Nov-16 22:04N 21°49' E 113°19'0 0.0
2014-Nov-16 21:28N 21°49' E 113°19'0 0.0
2014-Nov-16 20:28N 21°49' E 113°19'0 0.0
2014-Nov-16 19:28N 21°49' E 113°19'0 0.0
2014-Nov-16 18:16N 21°49' E 113°19'0 0.0
2014-Nov-16 17:28N 21°49' E 113°19'0 0.0
2014-Nov-16 11:10N 21°49' E 113°19'0 0.2
2014-Nov-16 10:12N 21°49' E 113°19'3 4.6
2014-Nov-16 09:33N 21°46' E 113°21'  

Dump ship's entire track history